Tracking 35055 objects as of 18-Aug-2026
HD Live streaming from Space Station
objects crossing your sky now

THORAD DELTA 1 DEB

Track THORAD DELTA 1 DEB now!
10-day predictions


NORAD ID: 8435
Int'l Code: 1974-089CL
Launch date: November 15, 1974
Source: United States (US)
Launch site: AIR FORCE WESTERN TEST RANGE (AFWTR)

Note: This is SATELLITE DEBRIS
Your satellite tracking list
Your tracking list is empty




NASA's NSSDC Master Catalog

Two Line Element Set (TLE):
1 08435U 74089CL  26230.11556319 -.00000041  00000-0 -18891-4 0  9990
2 08435 101.5544  89.7411 0165842  60.4198  89.6713 12.20831915306797
Source of the keplerian elements: AFSPC